Regional Weather Roundup
Issued by NWS

Home | Current Version | Previous Version | Text Only | Print | Product List | Glossary Off
Versions: 1 2 3 4 5 6 7 8 9 10 11 12 13 14 15 16 17 18 19 20 21 22 23 24 25 26 27 28 29 30 31 32 33 34 35 36 37 38 39 40 41 42 43 44 45 46 47 48 49 50

000
ASUS43 KMKX 260721
RWRWI

WISCONSIN REGIONAL WEATHER ROUNDUP
NATIONAL WEATHER SERVICE MILWAUKEE/SULLIVAN WI
200 AM CDT MON JUN 26 2017

NOTE: "FAIR" INDICATES FEW OR NO CLOUDS BELOW 12,000 FEET WITH NO
SIGNIFICANT WEATHER AND/OR OBSTRUCTIONS TO VISIBILITY.

WIZ001-002-006>008-014>016-023>028-260800-
NORTHWEST WISCONSIN

CITY           SKY/WX    TMP DP  RH WIND       PRES   REMARKS
SUPERIOR ARPT  NOT AVBL
ASHLAND        CLOUDY    49  44  83 NW10      30.08S
HAYWARD        CLEAR     46  42  86 CALM      30.10S
SIREN          PTCLDY    43  42  95 CALM      30.13R
CUMBERLAND     CLEAR     46  43  87 NW9       30.11S
RICE LAKE      CLEAR     48  45  88 CALM      30.12S
CHETEK         CLEAR     48  46  91 NW3       30.10S
LADYSMITH      CLEAR     47  45  91 NW9       30.09S
EAU CLAIRE     CLEAR     48  46  93 W3        30.09S
MENOMONIE      CLEAR     49  46  88 W6        30.11S
NEW RICHMOND   PTCLDY    47  42  84 NW6       30.13S
OSCEOLA        CLEAR     46  46 100 CALM      30.16S
$$

WIZ003>005-009-010-017-018-260800-
NORTH CENTRAL WISCONSIN

CITY           SKY/WX    TMP DP  RH WIND       PRES   REMARKS
MANITOWISH WTR CLOUDY    46  46 100 NW8       30.02F
ARBOR VITAE    CLOUDY    49  47  91 NW7       30.02R
WOODRUFF       CLOUDY    49  47  91 NW7       30.02R
RHINELANDER    CLOUDY    47  46  97 W6        30.02F
EAGLE RIVER    CLOUDY    47  46  97 W12       30.00F
LAND O LAKES   CLOUDY    47  45  93 NW6       30.01S
PHILLIPS       CLEAR     44  44  99 W5        30.05S
TOMAHAWK       NOT AVBL
MEDFORD        CLEAR     45  44  96 W6        30.05F
MERRILL        CLEAR     47  47 100 CALM      30.05S
$$

WIZ029-030-035-036-043>047-260800-
CENTRAL WISCONSIN

CITY           SKY/WX    TMP DP  RH WIND       PRES   REMARKS
WAUSAU         CLEAR     49  47  93 NW9       30.03S
MOSINEE        CLEAR     46  46 100 W7        30.05F
MARSHFIELD     CLEAR     47  44  90 NW6       30.05F
STEVENS POINT  CLEAR     48  46  93 W5        30.05F
WAUPACA        CLEAR     52  49  92 W7        30.04F
WAUTOMA        CLEAR     50  47  89 W7        30.06F
WISC RAPIDS    CLEAR     48  46  93 W6        30.07F
CAMP DOUGLAS   PTCLDY    45  44  98 W7        30.08F
$$

WIZ011>013-019>022-031-037>040-048>050-260800-
NORTHEAST WISCONSIN

CITY           SKY/WX    TMP DP  RH WIND       PRES   REMARKS
ANTIGO         PTCLDY    46  45  95 NW8       30.02F
SHAWANO        CLEAR     51  48  89 W3        30.02F
OCONTO         CLEAR     50  47  88 W8        30.00S
STURGEON BAY     N/A     54  48  80 NW15G22     N/A
GREEN BAY      CLEAR     51  50  96 W7        30.02S
MANITOWOC      CLEAR     54  49  83 W9        30.02S
APPLETON       CLEAR     50  48  93 W7        30.03S
CLINTONVILLE   CLEAR     50  46  87 W5        30.03S
OSHKOSH        CLEAR     52  47  83 W7        30.04S
$$

WIZ032>034-041-042-053>061-260800-
SOUTHWEST WISCONSIN

CITY           SKY/WX    TMP DP  RH WIND       PRES   REMARKS
LA CROSSE      PTCLDY    55  49  80 SE3       30.10S
SPARTA         CLEAR     42  42 100 CALM      30.10F
VIROQUA        CLEAR     51  47  86 W6        30.10F
BOSCOBEL       CLEAR     49  47  93 CALM      30.11F
PRAIRIE DU CHI PTCLDY    50  45  83 CALM      30.11F
PLATTEVILLE    CLEAR     51  49  92 W5        30.12F
$$

WIZ056-057-062-063-064-067-068-260800-
SOUTH CENTRAL WISCONSIN

CITY           SKY/WX    TMP DP  RH WIND       PRES   REMARKS
REEDSBURG      CLEAR     49  49 100 CALM      30.09S
BARABOO/DELLS  CLEAR     47  46  95 CALM      30.09S
LONE ROCK      PTCLDY    48  46  93 CALM      30.10F
MINERAL POINT  CLEAR     52  48  87 CALM      30.11S
MADISON        CLEAR     54  51  90 CALM      30.08F
MIDDLETON      CLEAR     50  50 100 CALM      30.09F
WATERTOWN      NOT AVBL
MONROE         CLEAR     54  46  76 W12       30.09F
JANESVILLE     CLEAR     54  54 100 CALM      30.09F
$$

WIZ051-052-058>065-066-070>072-260800-
SOUTHEAST WISCONSIN

CITY           SKY/WX    TMP DP  RH WIND       PRES   REMARKS
MILWAUKEE      MOCLDY    57  53  86 W7        30.07S
WAUKESHA       CLOUDY    52  48  87 W9        30.08F
MILWAUKEE/TIMM MOCLDY    55  48  76 W9        30.07S
RACINE         CLEAR     55  50  83 W5        30.08F
KENOSHA        PTCLDY    52  49  89 W6        30.08F
FOND DU LAC    CLEAR     54  47  77 W8        30.05S
SHEBOYGAN      CLEAR     53  52  96 W7        30.03F
WEST BEND      CLEAR     52  52 100 W7        30.05S
JUNEAU         CLEAR     51  48  90 W5        30.08S
$$

LSZ147-162-260800-
LAKE SUPERIOR

STATION/POSITION TIME  TEMP    WIND        PRES    WAVE
                       AIR SEA DIR/SP/G            HT/PER
                 (UTC) (F)     (DEG/KT/KT) (MB)    (FT/S)
W MID LAKE BUOY  0650   44 39  320/ 16/ 19 1016.4F
DEVILS ISLAND    0700   49     350/ 22/ 24 1018.4F
SAXON HARBOR     0640   53     330/ 14/ 17 1017.6F
$$

LMZ867-665-643>646-260800-
LAKE MICHIGAN

STATION/POSITION TIME  TEMP    WIND        PRES    WAVE
                       AIR SEA DIR/SP/G            HT/PER
                 (UTC) (F)     (DEG/KT/KT) (MB)    (FT/S)
CHAMBERS ISLAND  0640   55     290/  6/ 12 1014.6F
S GREEN BAY BUOY 0700   55     290/ 14/ 16 1015.7
N MID LAKE BUOY  0650   57 58  290/  6/  8 1014.7F   1/ 3
NORTHPORT PIER   0640   57     300/  7/ 11 1014.6S
KEWAUNEE LAKESHO 0700   53     290/  3/  6 1015.4
SHEBOYGAN LAKESH 0700   56     260/  8/ 10 1016.8F
PORT WASHINGTON  0630   56     260/  4/  7 1018.3S
ATWATER BUOY     0609   58 56  260/ 10/ 14 1018.0F
MILWAUKEE LAKESH 0700   58     270/  8/ 10   N/A
S MID LAKE BUOY  0650   60 61  320/ 17/ 21 1017.5F   3/ 5
KENOSHA   LAKESH 0700   58     280/  7/ 11 1018.3
$$

TC  - TEMPERATURE IN CELSIUS
VSB - VISIBILITY IN STATUTE MILES
WCI - WIND CHILL INDEX
HX  - HEAT INDEX





USA.gov is the U.S. government's official web portal to all federal, state and local government web resources and services.